This is the latest recevied weather packets stored in our database for station/object KD9NSC. If no packets are shown the sender has not sent any weather packets the latest 10 day(s).
| Time | Temp. | Humidity | Pressure | Rain* | Wind** | Luminosity | Snow |
|---|---|---|---|---|---|---|---|
| 1777872483 | 11.11° C | 78% | 1008.2 hPa | 0 mm | - | 0 W/m² | - |
| 1777872181 | 11.67° C | 78% | 1008 hPa | 0 mm | - | 0 W/m² | - |
| 1777871877 | 11.67° C | 77% | 1008.1 hPa | 0 mm | - | 0 W/m² | - |
| 1777871574 | 11.67° C | 77% | 1008.2 hPa | 0 mm | - | 0 W/m² | - |
| 1777871270 | 11.67° C | 78% | 1008.3 hPa | 0 mm | - | 0 W/m² | - |
| 1777870967 | 11.67° C | 78% | 1008.1 hPa | 0 mm | - | 0 W/m² | - |
| 1777870659 | 11.67° C | 77% | 1008.3 hPa | 0 mm | - | 0 W/m² | - |
| 1777870353 | 11.67° C | 77% | 1008.2 hPa | 0 mm | - | 0 W/m² | - |
| 1777870051 | 11.67° C | 76% | 1008.2 hPa | 0 mm | - | 0 W/m² | - |
| 1777869749 | 12.22° C | 75% | 1008.2 hPa | 0 mm | - | 0 W/m² | - |
| 1777869446 | 11.67° C | 76% | 1008.2 hPa | 0 mm | - | 0 W/m² | - |
| 1777869142 | 11.67° C | 76% | 1008.4 hPa | 0 mm | - | 0 W/m² | - |
| 1777868840 | 11.67° C | 76% | 1008.2 hPa | 0 mm | - | 0 W/m² | - |
| 1777868536 | 11.67° C | 76% | 1008.5 hPa | 0 mm | - | 0 W/m² | - |
| 1777868233 | 11.67° C | 76% | 1008.5 hPa | 0 mm | - | 0 W/m² | - |
| 1777867928 | 12.22° C | 76% | 1008.3 hPa | 0 mm | - | 0 W/m² | - |
| 1777867625 | 12.22° C | 75% | 1008.4 hPa | 0 mm | - | 0 W/m² | - |
| 1777867323 | 12.22° C | 75% | 1008.6 hPa | 0 mm | - | 0 W/m² | - |
| 1777867018 | 12.22° C | 74% | 1008.8 hPa | 0 mm | - | 0 W/m² | - |
| 1777866716 | 12.22° C | 75% | 1008.8 hPa | 0 mm | - | 0 W/m² | - |
| 1777866413 | 12.22° C | 75% | 1008.9 hPa | 0 mm | - | 0 W/m² | - |
| 1777866110 | 12.22° C | 74% | 1008.8 hPa | 0 mm | - | 0 W/m² | - |
| 1777865808 | 12.78° C | 73% | 1008.6 hPa | 0 mm | - | 0 W/m² | - |
| 1777865505 | 12.78° C | 73% | 1009 hPa | 0 mm | - | 0 W/m² | - |
| 1777865201 | 12.22° C | 73% | 1009 hPa | 0 mm | - | 0 W/m² | - |
* Rain latest hour (hover to see other rain measurements)
** Current wind speed in m/s (hover to see current wind gust speed)